Flag for United Kingdom Weather past 2 weeks in Loughton, England, United Kingdom

Now
62 °F

Mild.


Feels Like: 62 °F
Forecast: 58 / 69 °F
Wind: 6 mph from Southeast

Location: Gravesend-Broadness

Current Time: Aug 28, 2014 at 7:03:42 AM

Latest Report: Aug 28, 2014 at 6:00 AM


Visibility: N/A

Pressure: 29.80 "Hg

Humidity: 97%

Dew point: 62 °F

Location of LoughtonLocation

Historic Weather in Loughton — Graph

°F

Loughton temperature yesterday

Maximum temperature yesterday: 67 °F (at 12:00 PM)
Minimum temperature yesterday: 51 °F (at 6:00 AM)
Average temperature yesterday: 60 °F

Past Weeks' High & Low Weather Summary

 TemperatureHumidityPressure
High70 °F (Aug 13, 5:00 PM)99% (Aug 26, 7:00 AM)30.16 "Hg (Aug 26, 7:00 AM)
Low46 °F (Aug 24, 6:00 AM)39% (Aug 20, 5:00 PM)29.54 "Hg (Aug 25, 10:00 PM)
Average60 °F74%29.89 "Hg
* Reported Aug 13 5:00 AM — Aug 28 5:00 AM, Loughton, Weather by CustomWeather, © 2014

Note: Actual official high and low records may vary slightly from our data, if they occured in-between our weather recording intervals... More about our weather records

Advertising

Loughton weather history for previous 24 hours

 ConditionsComfort  
Time TempWeatherWind HumidityBarometerVisibility
5:00 AM
Aug 28
62 °FCool.8 mph96%29.81 "HgN/A
4:00 AM62 °FCool.8 mph95%29.83 "HgN/A
3:00 AM62 °FMild.6 mph91%29.84 "HgN/A
2:00 AM63 °FMild.6 mph90%29.85 "HgN/A
1:00 AM63 °FMild.6 mph89%29.87 "HgN/A
12:00 AM63 °FMild.6 mph88%29.88 "HgN/A
11:00 PM
Aug 27
62 °FCool.7 mph87%29.89 "HgN/A
10:00 PM62 °FCool.6 mph87%29.90 "HgN/A
9:00 PM62 °FMild.8 mph85%29.91 "HgN/A
8:00 PM63 °FMild.8 mph82%29.90 "HgN/A
7:00 PM64 °FMild.7 mph76%29.92 "HgN/A
6:00 PM64 °FMild.9 mph77%29.92 "HgN/A
5:00 PM64 °FMild.13 mph76%29.93 "HgN/A
3:00 PM66 °FMild.14 mph67%29.95 "HgN/A
2:00 PM66 °FMild.15 mph67%29.96 "HgN/A
1:00 PM66 °FMild.14 mph68%29.97 "HgN/A
12:00 PM67 °FMild.12 mph65%29.99 "HgN/A
11:00 AM65 °FMild.10 mph69%29.99 "HgN/A
9:00 AM60 °FCool.6 mph82%29.98 "HgN/A
8:00 AM55 °FCool.3 mph91%29.98 "HgN/A
7:00 AM51 °FCool.No wind96%29.97 "HgN/A
Weather by CustomWeather, © 2014

See weather overviewHow to use our weather pages